World > North America > United States > California   City of Oakland, CA
Hourly Weather in Oakland, CaliforniaOakland, California Hourly Weather

Oakland, CA Hourly Weather

Hourly Weather Oakland, CaliforniaHourly Weather in Oakland, CA
Lat: 37.77N, Lon: 122.22W  ICAO: KOAK
Web Search

Our weather pages are very print friendly and they make great conversation starters.

Feedback

Oakland Hourly Weather

36 Hour Weather Scroll   °F Click to change Oakland hourly weather to Imperial units.Click to change Oakland hourly weather to Metric units. °C
Currently, Fog And Mist, temperature is 50°F10°C, dew point 47°F8°C, humidity 89%. Wind direction is S at 7 mph11 km/h with visibility of 4.00 mi6 km. Barometric pressure is 30.27 in1025 mb.

Jan 19
NOON

Jan 19
1:00 PM

Jan 19
2:00 PM

Jan 19
3:00 PM

Jan 19
4:00 PM

Jan 19
5:00 PM

Jan 19
6:00 PM

Jan 19
7:00 PM

Jan 19
8:00 PM

Jan 19
9:00 PM

Jan 19
10:00 PM

Jan 19
11:00 PM

Jan 20
MIDNIGHT

Jan 20
1:00 AM

Jan 20
2:00 AM

Jan 20
3:00 AM

Jan 20
4:00 AM

Jan 20
5:00 AM

Jan 20
6:00 AM

Jan 20
7:00 AM

Jan 20
8:00 AM

Jan 20
9:00 AM

Jan 20
10:00 AM

Jan 20
11:00 AM

Jan 20
NOON

Jan 20
1:00 PM

Jan 20
2:00 PM

Jan 20
3:00 PM

Jan 20
4:00 PM

Jan 20
5:00 PM

Jan 20
6:00 PM

Jan 20
7:00 PM

Jan 20
8:00 PM

Jan 20
9:00 PM

Jan 20
10:00 PM

Jan 20
11:00 PM
Mostly Clear Mostly Clear Mostly Clear Mostly Clear Mostly Clear Mostly Clear Clear Clear Clear Clear Clear Clear Mostly Clear Mostly Clear Mostly Clear Mostly Clear Mostly Clear Mostly Clear Partly Cloudy Partly Cloudy Partly Cloudy Mostly Cloudy Mostly Cloudy Mostly Cloudy Mostly Clear Mostly Clear Mostly Clear Partly Cloudy Partly Cloudy Partly Cloudy Mostly Clear Mostly Clear Mostly Clear Clear Clear Clear
Mostly Clear Mostly Clear Mostly Clear Mostly Clear Mostly Clear Mostly Clear Clear Clear Clear Clear Clear Clear Mostly Clear Mostly Clear Mostly Clear Mostly Clear Mostly Clear Mostly Clear Partly Cloudy Partly Cloudy Partly Cloudy Mostly Cloudy Mostly Cloudy Mostly Cloudy Mostly Clear Mostly Clear Mostly Clear Partly Cloudy Partly Cloudy Partly Cloudy Mostly Clear Mostly Clear Mostly Clear Clear Clear Clear
55°F13°C 56°F13°C 56°F13°C 56°F13°C 56°F13°C 54°F12°C 53°F12°C 51°F11°C 50°F10°C 50°F10°C 49°F9°C 48°F9°C 48°F9°C 47°F8°C 47°F8°C 47°F8°C 47°F8°C 47°F8°C 47°F8°C 47°F8°C 49°F9°C 51°F11°C 53°F12°C 54°F12°C 55°F13°C 56°F13°C 56°F13°C 57°F14°C 57°F14°C 55°F13°C 54°F12°C 52°F11°C 51°F11°C 50°F10°C 49°F9°C 48°F9°C
- - - - - - - - - - - - - - - - - - - - - - - - - - - - - - - - - - - -
0% 0% 0% 0% 0% 0% 0% 0% 0% 0% 0% 0% 0% 0% 0% 0% 0% 0% 0% 0% 0% 0% 0% 0% 0% 0% 0% 0% 0% 0% 0% 0% 0% 0% 0% 0%
49°F9°C 49°F9°C 49°F9°C 48°F9°C 48°F9°C 48°F9°C 48°F9°C 48°F9°C 47°F8°C 47°F8°C 46°F8°C 45°F7°C 45°F7°C 44°F7°C 44°F7°C 44°F7°C 44°F7°C 44°F7°C 43°F6°C 43°F6°C 44°F7°C 44°F7°C 45°F7°C 46°F8°C 47°F8°C 48°F9°C 48°F9°C 48°F9°C 48°F9°C 48°F9°C 48°F9°C 48°F9°C 47°F8°C 46°F8°C 45°F7°C 45°F7°C
80% 77% 77% 74% 74% 80% 83% 89% 89% 89% 89% 89% 89% 89% 89% 89% 89% 89% 86% 86% 83% 77% 74% 74% 74% 74% 74% 72% 72% 77% 80% 86% 86% 86% 86% 89%
SSW W W WNW WNW SSE SE NE NE NE NE NE NE NE ENE E ESE ESE E E SE SE SSE SW SSW NW NW NW NW NW NNW N SSW SE N SE
5 mph 5 mph 5 mph 5 mph 5 mph 5 mph 1 mph 1 mph 1 mph 1 mph 1 mph 1 mph 1 mph 1 mph 1 mph 2 mph 2 mph 2 mph 3 mph 3 mph 3 mph 4 mph 4 mph 4 mph 4 mph 4 mph 4 mph 5 mph 5 mph 5 mph 3 mph 3 mph 3 mph 3 mph 3 mph 3 mph
10 mi16 km 10 mi16 km 10 mi16 km 10 mi16 km 10 mi16 km 10 mi16 km 10 mi16 km 10 mi16 km 10 mi16 km 10 mi16 km 10 mi16 km 10 mi16 km 6 mi10 km 6 mi10 km 5 mi8 km 3 mi5 km .75 mi1 km 3 mi5 km 6 mi10 km 10 mi16 km 6 mi10 km 6 mi10 km 5 mi8 km 6 mi10 km 6 mi10 km 10 mi16 km 10 mi16 km 10 mi16 km 10 mi16 km 10 mi16 km 10 mi16 km 10 mi16 km 10 mi16 km 6 mi10 km 6 mi10 km 6 mi10 km
Hour (PST)
Weather
Clouds
Temperature
Precip. Type
POP
Dewpoint
Humidity
Wind Direction
Wind Speed
Visibility
POP = Probability of Precipitation. ** Indicates missing data/values from model statistics.

24 Hour Forecast

Rest of Today - Partly cloudy late in the morning then becoming sunny. Highs around 60. Northwest winds 5 to 10 mph.
Tonight - Mostly clear. Lows in the 40s. North winds 5 to 10 mph.

48 Hour Forecast API Feed


Wed, Jan 19
Noon

Wed, Jan 19
1:00 pm

Wed, Jan 19
2:00 pm

Wed, Jan 19
3:00 pm

Wed, Jan 19
4:00 pm

Wed, Jan 19
5:00 pm

Wed, Jan 19
6:00 pm

Wed, Jan 19
7:00 pm

Wed, Jan 19
8:00 pm

Wed, Jan 19
9:00 pm

Wed, Jan 19
10:00 pm

Wed, Jan 19
11:00 pm

Thu, Jan 20
Midnight

Thu, Jan 20
1:00 am

Thu, Jan 20
2:00 am

Thu, Jan 20
3:00 am

Thu, Jan 20
4:00 am

Thu, Jan 20
5:00 am

Thu, Jan 20
6:00 am

Thu, Jan 20
7:00 am

Thu, Jan 20
8:00 am

Thu, Jan 20
9:00 am

Thu, Jan 20
10:00 am

Thu, Jan 20
11:00 am

Thu, Jan 20
Noon

Thu, Jan 20
1:00 pm

Thu, Jan 20
2:00 pm

Thu, Jan 20
3:00 pm

Thu, Jan 20
4:00 pm

Thu, Jan 20
5:00 pm

Thu, Jan 20
6:00 pm

Thu, Jan 20
7:00 pm

Thu, Jan 20
8:00 pm

Thu, Jan 20
9:00 pm

Thu, Jan 20
10:00 pm

Thu, Jan 20
11:00 pm

Fri, Jan 21
Midnight

Fri, Jan 21
1:00 am

Fri, Jan 21
2:00 am

Fri, Jan 21
3:00 am

Fri, Jan 21
4:00 am

Fri, Jan 21
5:00 am

Fri, Jan 21
6:00 am

Fri, Jan 21
7:00 am

Fri, Jan 21
8:00 am

Fri, Jan 21
9:00 am

Fri, Jan 21
10:00 am

Fri, Jan 21
11:00 am
SunnySunnySunnySunnySunnySunnyClearClearClearClearClearClearClearClearClearClearClearClearClearClearSunnySunnySunnySunnySunnySunnySunnySunnyOvercastCloudyClearClearClearClearClearClearClearClearClearClearClearClearClearClearSunnySunnySunnySunny
Sunny Sunny Sunny Sunny Sunny Sunny Clear Clear Clear Clear Clear Clear Clear Clear Clear Clear Clear Clear Clear Clear Sunny Sunny Sunny Sunny Sunny Sunny Sunny Sunny Overcast Cloudy Clear Clear Clear Clear Clear Clear Clear Clear Clear Clear Clear Clear Clear Clear Sunny Sunny Sunny Sunny
59°F
15°C
61°F
16°C
64°F
18°C
63°F
17°C
63°F
17°C
64°F
18°C
60°F
16°C
58°F
15°C
52°F
11°C
52°F
11°C
51°F
11°C
51°F
10°C
50°F
10°C
50°F
10°C
50°F
10°C
49°F
10°C
49°F
10°C
49°F
9°C
48°F
9°C
48°F
9°C
48°F
9°C
49°F
9°C
53°F
12°C
57°F
14°C
59°F
15°C
63°F
17°C
64°F
18°C
65°F
18°C
62°F
17°C
61°F
16°C
58°F
14°C
59°F
15°C
53°F
12°C
52°F
11°C
51°F
11°C
51°F
11°C
51°F
10°C
50°F
10°C
50°F
10°C
49°F
10°C
49°F
9°C
49°F
9°C
49°F
9°C
48°F
9°C
48°F
9°C
49°F
10°C
53°F
12°C
58°F
15°C
47°F
8°C
47°F
8°C
48°F
9°C
47°F
8°C
47°F
8°C
49°F
9°C
48°F
9°C
48°F
9°C
43°F
6°C
44°F
6°C
44°F
7°C
44°F
6°C
43°F
6°C
43°F
6°C
43°F
6°C
43°F
6°C
43°F
6°C
42°F
6°C
42°F
6°C
42°F
5°C
41°F
5°C
42°F
6°C
44°F
7°C
46°F
8°C
45°F
7°C
48°F
9°C
47°F
8°C
48°F
9°C
46°F
8°C
47°F
8°C
45°F
7°C
49°F
9°C
44°F
7°C
44°F
6°C
43°F
6°C
43°F
6°C
43°F
6°C
43°F
6°C
42°F
6°C
42°F
6°C
42°F
6°C
42°F
6°C
42°F
6°C
43°F
6°C
43°F
6°C
44°F
6°C
45°F
7°C
42°F
6°C
30.24 in
1024 mb
30.24 in
1024 mb
30.21 in
1023 mb
30.18 in
1022 mb
30.18 in
1022 mb
30.18 in
1022 mb
30.21 in
1023 mb
30.21 in
1023 mb
30.24 in
1024 mb
30.24 in
1024 mb
30.24 in
1024 mb
30.24 in
1024 mb
30.27 in
1025 mb
30.27 in
1025 mb
30.27 in
1025 mb
30.27 in
1025 mb
30.27 in
1025 mb
30.27 in
1025 mb
30.27 in
1025 mb
30.27 in
1025 mb
30.3 in
1026 mb
30.3 in
1026 mb
30.3 in
1026 mb
30.33 in
1027 mb
30.33 in
1027 mb
30.3 in
1026 mb
30.3 in
1026 mb
30.24 in
1024 mb
30.24 in
1024 mb
30.24 in
1024 mb
30.24 in
1024 mb
30.24 in
1024 mb
30.24 in
1024 mb
30.24 in
1024 mb
30.24 in
1024 mb
30.24 in
1024 mb
30.24 in
1024 mb
30.21 in
1023 mb
30.21 in
1023 mb
30.21 in
1023 mb
30.18 in
1022 mb
30.15 in
1021 mb
30.15 in
1021 mb
30.15 in
1021 mb
30.15 in
1021 mb
30.15 in
1021 mb
30.18 in
1022 mb
30.15 in
1021 mb
65%60%56%55%55%58%63%67%71%74%75%76%77%77%77%78%79%79%79%79%79%78%72%66%61%58%54%54%55%59%63%68%72%73%74%74%74%75%75%76%77%77%78%80%82%81%73%56%
NNWNWNWNWNNWNWNWNNWNNEENENENNENNENNENEENEENEENEENEENEEENNNWNNNWNENNWNNWNNNENENENNENENENENEEENENENNENENNNNE
2 mph
3 km/h
3 mph
5 km/h
4 mph
6 km/h
5 mph
8 km/h
5 mph
8 km/h
4 mph
6 km/h
4 mph
6 km/h
3 mph
5 km/h
3 mph
4 km/h
2 mph
4 km/h
2 mph
4 km/h
2 mph
3 km/h
2 mph
3 km/h
2 mph
4 km/h
2 mph
4 km/h
2 mph
4 km/h
3 mph
5 km/h
3 mph
4 km/h
3 mph
5 km/h
3 mph
5 km/h
3 mph
5 km/h
3 mph
4 km/h
2 mph
4 km/h
3 mph
4 km/h
6 mph
9 km/h
2 mph
3 km/h
3 mph
5 km/h
2 mph
3 km/h
2 mph
3 km/h
4 mph
6 km/h
4 mph
7 km/h
3 mph
5 km/h
3 mph
5 km/h
3 mph
5 km/h
4 mph
6 km/h
3 mph
5 km/h
3 mph
5 km/h
3 mph
4 km/h
4 mph
6 km/h
4 mph
6 km/h
2 mph
3 km/h
3 mph
5 km/h
4 mph
6 km/h
2 mph
4 km/h
3 mph
4 km/h
2 mph
4 km/h
4 mph
7 km/h
5 mph
8 km/h
0%0%0%0%0%0%0%0%0%0%0%0%0%0%0%0%0%0%0%0%0%0%0%0%0%0%0%0%0%0%0%0%0%0%0%0%0%0%0%0%0%0%0%0%0%0%0%0%
6 mi
10 km
6 mi
10 km
6 mi
10 km
6 mi
10 km
6 mi
10 km
6 mi
10 km
6 mi
10 km
6 mi
10 km
6 mi
10 km
6 mi
10 km
6 mi
10 km
6 mi
10 km
6 mi
10 km
6 mi
10 km
6 mi
10 km
6 mi
10 km
6 mi
10 km
6 mi
10 km
6 mi
10 km
6 mi
10 km
6 mi
10 km
6 mi
10 km
6 mi
10 km
6 mi
10 km
6 mi
10 km
6 mi
10 km
6 mi
10 km
6 mi
10 km
6 mi
10 km
6 mi
10 km
6 mi
10 km
6 mi
10 km
6 mi
10 km
6 mi
10 km
6 mi
10 km
6 mi
10 km
6 mi
10 km
6 mi
10 km
6 mi
10 km
6 mi
10 km
6 mi
10 km
6 mi
10 km
6 mi
10 km
6 mi
10 km
6 mi
10 km
6 mi
10 km
6 mi
10 km
6 mi
10 km

Day/Time
Weather
Condition
Temperature
Dew Point
Pressure
Humidity
Wind Direction
Wind Speed
Prob Precip %
Visibility
Prob Precip % = Probability of Precipitation.